Broomfield, CO

1:44 PM MDT on June 26, 2017 (GMT -0600)
Jeffco

Weather History for KBJC - October, 2012

Change the Weather History Date:

Tuesday, October 16, 2012

  Actual Average Record
Temperature  
Mean Temperature 64 °F -  
Max Temperature 77 °F 63 °F 89 °F (1991)
Min Temperature 50 °F 39 °F 13 °F (1988)
Degree Days  
Heating Degree Days 2    
Growing Degree Days 14 (Base 50)    
Moisture  
Dew Point 24 °F    
Average Humidity 24    
Maximum Humidity 54    
Minimum Humidity 10    
Precipitation  
Precipitation 0.00 in - - ()
Sea Level Pressure  
Sea Level Pressure 29.84 in    
Wind  
Wind Speed 14 mph (WSW)    
Max Wind Speed 33 mph    
Max Gust Speed 43 mph    
Visibility 11 miles    
Events Rain    
Averages and records for this station are not official NWS values.
T = Trace of Precipitation, MM = Missing Value Source: NWS Daily Summary

Daily Weather History Graph

Daily Weather History Graph

Search for Another Location

Airport or City:

Trip Planner

Search our weather history database for the weather conditions in past years. The results will help you decide how hot, cold, wet, or windy it might be!

Date:

Astronomy

Oct. 16, 2012 Rise Set
Actual Time 7:12 AM MDT 6:18 PM MDT
Civil Twilight 6:45 AM MDT 6:45 PM MDT
Nautical Twilight 6:13 AM MDT 7:17 PM MDT
Astronomical Twilight 5:42 AM MDT 7:48 PM MDT
Moon 8:38 AM MDT (10/16) 7:05 PM MDT (10/16)
Length of Visible Light 12h 00m
Length of Day
11h 06m
New Moon, 2% of the Moon is Illuminated
Oct 16
New Moon
Oct 21
First Quarter
Oct 29
Full
Nov 6
Last Quarter
Nov 13
New

Hourly Weather History & Observations

Time (MDT) Temp. Dew Point Humidity Pressure Visibility Wind Dir Wind Speed Gust Speed Precip Events Conditions
12:16 AM 62.6 °F 19.4 °F 19% 29.94 in 10.0 mi West 18.4 mph 24.2 mph N/A   Clear
12:36 AM 62.6 °F 19.4 °F 19% 29.94 in 10.0 mi SW 5.8 mph 9.2 mph N/A   Clear
12:56 AM 60.8 °F 19.4 °F 20% 29.95 in 10.0 mi SW 5.8 mph - N/A   Clear
1:16 AM 60.8 °F 19.4 °F 20% 29.96 in 10.0 mi Calm Calm - N/A   Clear
1:36 AM 60.8 °F 21.2 °F 22% 29.97 in 10.0 mi NW 4.6 mph - N/A   Clear
1:56 AM 59.0 °F 21.2 °F 23% 29.97 in 10.0 mi Calm Calm - N/A   Clear
2:16 AM 59.0 °F 21.2 °F 23% 29.96 in 10.0 mi SSW 6.9 mph - N/A   Clear
2:36 AM 57.2 °F 23.0 °F 27% 29.96 in 10.0 mi SSE 11.5 mph 19.6 mph N/A   Clear
2:56 AM 60.8 °F 23.0 °F 23% 29.95 in 10.0 mi WSW 9.2 mph 24.2 mph N/A   Clear
3:16 AM 62.6 °F 23.0 °F 22% 29.93 in 10.0 mi WSW 25.3 mph 35.7 mph N/A   Clear
3:36 AM 62.6 °F 23.0 °F 22% 29.93 in 10.0 mi WSW 18.4 mph 28.8 mph N/A   Clear
3:56 AM 60.8 °F 24.8 °F 25% 29.93 in 10.0 mi WSW 21.9 mph 25.3 mph N/A   Clear
4:16 AM 60.8 °F 24.8 °F 25% 29.92 in 10.0 mi WSW 21.9 mph 27.6 mph N/A   Clear
4:35 AM 60.8 °F 26.6 °F 27% 29.92 in 10.0 mi WSW 16.1 mph 26.5 mph N/A   Clear
4:56 AM 60.8 °F 26.6 °F 27% 29.91 in 10.0 mi WSW 21.9 mph 28.8 mph N/A   Clear
5:15 AM 60.8 °F 24.8 °F 25% 29.90 in 10.0 mi WSW 19.6 mph 27.6 mph N/A   Clear
5:36 AM 60.8 °F 24.8 °F 25% 29.90 in 10.0 mi WSW 20.7 mph 35.7 mph N/A   Clear
5:47 AM 60.8 °F 24.8 °F 25% 29.90 in 30.0 mi WSW 20.7 mph 28.8 mph N/A   Clear
5:56 AM 60.8 °F 24.8 °F 25% 29.90 in 10.0 mi WSW 18.4 mph 31.1 mph N/A   Clear
6:47 AM 53.6 °F 24.8 °F 33% 29.90 in 30.0 mi WNW 12.7 mph - N/A   Partly Cloudy
7:47 AM 57.2 °F 24.8 °F 29% 29.89 in 30.0 mi Variable 5.8 mph - N/A   Partly Cloudy
8:51 AM 62.6 °F 26.6 °F 26% 29.89 in 50.0 mi Variable 3.5 mph - N/A   Scattered Clouds
10:30 AM 68.0 °F 21.2 °F 17% 29.84 in 50.0 mi WSW 17.3 mph 23.0 mph N/A   Mostly Cloudy
10:54 AM 71.6 °F 17.6 °F 13% 29.82 in 50.0 mi WSW 17.3 mph 29.9 mph N/A   Mostly Cloudy
11:15 AM 68.0 °F 24.8 °F 20% 29.81 in 60.0 mi SE 12.7 mph - N/A   Mostly Cloudy
11:45 AM 68.0 °F 19.4 °F 16% 29.80 in 50.0 mi South 10.4 mph - N/A   Mostly Cloudy
12:49 PM 73.4 °F 17.6 °F 12% 29.75 in 60.0 mi South 5.8 mph - N/A   Mostly Cloudy
1:45 PM 77.0 °F 15.8 °F 10% 29.67 in 60.0 mi SW 17.3 mph 28.8 mph N/A   Mostly Cloudy
2:50 PM 75.2 °F 17.6 °F 11% 29.67 in 60.0 mi SW 23.0 mph 28.8 mph N/A   Scattered Clouds
3:52 PM 75.2 °F 19.4 °F 12% 29.64 in 60.0 mi West 18.4 mph 29.9 mph N/A   Scattered Clouds
5:46 PM 71.6 °F 24.8 °F 17% 29.61 in 60.0 mi West 15.0 mph 23.0 mph N/A   Scattered Clouds
6:53 PM 71.6 °F 24.8 °F 17% 29.62 in 20.0 mi West 10.4 mph - N/A   Scattered Clouds
7:48 PM 68.0 °F 24.8 °F 20% 29.63 in 30.0 mi West 23.0 mph 28.8 mph N/A   Scattered Clouds
8:52 PM 62.6 °F 32.0 °F 32% 29.64 in 20.0 mi North 15.0 mph - N/A   Mostly Cloudy
9:53 PM 64.4 °F 30.2 °F 28% 29.69 in 15.0 mi WSW 32.2 mph 42.6 mph N/A   Overcast
11:16 PM 51.8 °F 33.8 °F 50% 29.78 in 10.0 mi WNW 23.0 mph 36.8 mph N/A Rain Light Rain
11:36 PM 50.0 °F 33.8 °F 54% 29.80 in 10.0 mi West 33.4 mph 38.0 mph N/A   Clear
11:56 PM 50.0 °F 32.0 °F 50% 29.78 in 10.0 mi WSW 25.3 mph 34.5 mph N/A   Clear